Location: Ambatotampy
(18.8181°S, 47.6186°E)
Time: 23:30:11
(UTC+00:00)

In-Cosmos 22 - Pass Details

Date: 21 January 2021
Orbit: 784 x 877 km, 81.2° (Epoch: 24 February)

Event Time Altitude Azimuth Distance (km) Brightness Sun altitude
Exits shadow 00:55:21 19° 359° (N) 1,845 5.7 -20.7°
Maximum altitude 00:59:19 82° 85° (E) 844 4.2 -19.9°
Drops below altitude 10° 01:04:57 10° 172° (S) 2,483 7.1 -18.7°
Sets 01:07:25 0° 172° (S) 3,437 7.9 -18.2°
